User: anonymous   Login
Location: Unspecified
(42.0334°N, 93.6656°W)
Time: 18:51:58
(UTC-05:00)
Language:

Iridium 63 - Orbit

View from above orbital plane
View from above orbital plane
View from above satellite
View from above satellite

Ground track
Ground track

The orbit data is extracted from the following two-line orbital elements,

1 25286U 98021B   15087.25117613  .00000540  00000-0  18510-3 0  9997
2 25286 086.4039 203.6076 0002008 101.9890 319.1666 14.34410238888643
Epoch (UTC): 28 March 2015 06:01:41
Eccentricity: 0.0002008
inclination: 86.4039°
perigee height: 775 km
apogee height: 778 km
right ascension of ascending node: 203.6076°
argument of perigee: 101.9890°
revolutions per day: 14.34410238
mean anomaly at epoch: 319.1666°
orbit number at epoch: 88864

The dashed part of the orbit path shows where the satellite is in the earth's shadow,  

DLR